Terug naar catalogus

STARLINK-36148

ActiefCommunicatieVLEO
NORAD 67005·PAYLOAD·🇺🇸 United States

Gelanceerd Dec 10, 2025 vanaf Vandenberg Space Force Base

Loading…

Volgende Passages (komende 24 uur)

TLE

VersSource: CelesTrak SupGP

Epoch: Sep 14, 2026, 22:34 UTC

1 67005C 25293C   26257.94076389 -.00018682  00000+0 -15653-2 0  2572
2 67005  70.0022 337.3889 0003522 266.2594  82.8987 14.98347010    18

Volg STARLINK-36148 in realtime met AllMySat

Download on the App Store